Regional Weather Roundup
Issued by NWS

Home | Current Version | Previous Version | Text Only | Print | Product List | Glossary Off
Versions: 1 2 3 4 5 6 7 8 9 10 11 12 13 14 15 16 17 18 19 20 21 22 23 24 25 26 27 28 29 30 31 32 33 34 35 36 37 38 39 40 41 42 43 44 45 46 47 48 49 50

000
ASUS43 KMKX 061900
RWRWI

WISCONSIN REGIONAL WEATHER ROUNDUP
NATIONAL WEATHER SERVICE MILWAUKEE/SULLIVAN WI
200 PM CDT WED MAY 06 2015

NOTE: "FAIR" INDICATES FEW OR NO CLOUDS BELOW 12,000 FEET WITH NO
SIGNIFICANT WEATHER AND/OR OBSTRUCTIONS TO VISIBILITY.

WIZ001-002-006>008-014>016-023>028-062000-
NORTHWEST WISCONSIN

CITY           SKY/WX    TMP DP  RH WIND       PRES   REMARKS
SUPERIOR ARPT  CLOUDY    46  38  74 NE13G20   30.08F
ASHLAND        CLOUDY    57  54  89 N8        30.09F
HAYWARD        CLOUDY    63  53  70 SE10      30.07F
SIREN          PTSUNNY   67  54  63 S14       30.03F
CUMBERLAND     CLOUDY    63  54  72 E10       30.05F
RICE LAKE      CLOUDY    66  56  71 E9        30.06F
CHETEK         CLOUDY    66  58  73 MISG      30.05F
LADYSMITH      RAIN      64  55  73 SE7       30.11F
EAU CLAIRE     PTSUNNY   69  58  67 SE8       30.04F
MENOMONIE      PTSUNNY   66  58  75 E7        30.05F
NEW RICHMOND   PTSUNNY   67  57  71 SE10      30.01F
OSCEOLA        PTSUNNY   66  58  75 E10       30.03F
$$

WIZ003>005-009-010-017-018-062000-
NORTH CENTRAL WISCONSIN

CITY           SKY/WX    TMP DP  RH WIND       PRES   REMARKS
MANITOWISH WTR PTSUNNY   60  56  87 S8        30.13F
ARBOR VITAE    PTSUNNY   62  57  84 SE7         N/A
WOODRUFF       PTSUNNY   62  57  84 SE7         N/A
RHINELANDER    PTSUNNY   63  56  78 SE9       30.15F
EAGLE RIVER    PTSUNNY   64  53  68 S10       30.14F
LAND O LAKES   CLOUDY    60  51  69 SE3       30.16S
PHILLIPS       CLOUDY    61  56  84 SE6       30.11F
TOMAHAWK       CLOUDY    60  56  85 CALM      30.14F
MEDFORD        CLOUDY    64  55  75 SE8       30.12F
MERRILL        PTSUNNY   63  58  84 SE9       30.14F
$$

WIZ029-030-035-036-043>047-062000-
CENTRAL WISCONSIN

CITY           SKY/WX    TMP DP  RH WIND       PRES   REMARKS
WAUSAU         PTSUNNY   67  56  67 SE10      30.11F
MOSINEE        MOSUNNY   66  57  72 SE10G20   30.13F
MARSHFIELD     PTSUNNY   73  56  54 SE13      30.10F
STEVENS POINT  PTSUNNY   66  55  66 E12       30.13F
WAUPACA        CLOUDY    67  56  67 E7        30.15F
WAUTOMA        NOT AVBL
WISC RAPIDS    PTSUNNY   72  55  55 S12       30.11F
CAMP DOUGLAS   NOT AVBL
$$

WIZ011>013-019>022-031-037>040-048>050-062000-
NORTHEAST WISCONSIN

CITY           SKY/WX    TMP DP  RH WIND       PRES   REMARKS
ANTIGO         CLOUDY    61  57  84 S9        30.17S
SHAWANO        CLOUDY    64  56  75 SE7       30.18S
OCONTO         MOSUNNY   61  51  69 SE6       30.19S
STURGEON BAY   CLOUDY    55  46  71 E8        30.23S
GREEN BAY      PTSUNNY   69  57  65 VRB6      30.17F
MANITOWOC      NOT AVBL
APPLETON       CLOUDY    64  55  72 SE8       30.17F HAZE
CLINTONVILLE   CLOUDY    64  54  68 SE5       30.16F
OSHKOSH        PTSUNNY   63  57  81 E9        30.15F
$$

WIZ032>034-041-042-053>061-062000-
SOUTHWEST WISCONSIN

CITY           SKY/WX    TMP DP  RH WIND       PRES   REMARKS
LA CROSSE      MOSUNNY   77  60  55 SE8       30.02F
SPARTA         PTSUNNY   71  58  62 E6        30.07F
VIROQUA        MOSUNNY   69  61  74 E9        30.07F
BOSCOBEL       PTSUNNY   74  60  61 E8        30.06F
PRAIRIE DU CHI PTSUNNY   73  60  63 E12       30.03F
PLATTEVILLE    SUNNY     73  63  72 SE12      30.08F
$$

WIZ056-057-062-063-064-067-068-062000-
SOUTH CENTRAL WISCONSIN

CITY           SKY/WX    TMP DP  RH WIND       PRES   REMARKS
REEDSBURG      MOSUNNY   69  60  74 E5        30.10F
BARABOO/DELLS  NOT AVBL
LONE ROCK      NOT AVBL
MINERAL POINT  PTSUNNY   73  61  64 SE8       30.09F
MADISON        PTSUNNY   70  61  73 E8        30.11F
MIDDLETON      MOSUNNY   69  60  75 E8        30.12F
WATERTOWN      PTSUNNY   67  62  82 E5        30.14S
MONROE         MOSUNNY   72  63  73 E9        30.10F
JANESVILLE     PTSUNNY   75  61  60 SE13      30.11F
$$

WIZ051-052-058>065-066-070>072-062000-
SOUTHEAST WISCONSIN

CITY           SKY/WX    TMP DP  RH WIND       PRES   REMARKS
MILWAUKEE      PTSUNNY   56  51  84 E9        30.18F HAZE
WAUKESHA       MOSUNNY   63  54  72 E7        30.17F
MILWAUKEE/TIMM CLOUDY    55  50  82 NE8       30.19F
RACINE         CLOUDY    55  50  83 E7        30.20F HAZE
BURLINGTON     SUNNY     67  58  74 E7        30.15F HAZE
KENOSHA        PTSUNNY   59  54  83 E10       30.17F
FOND DU LAC    CLOUDY    61  56  83 SE9       30.15F
SHEBOYGAN      CLOUDY    56  52  86 S6        30.18F
WEST BEND      PTSUNNY   57  52  82 E9        30.17F
JUNEAU         CLOUDY    61  57  87 E8        30.16F
$$

LSZ147-162-062000-
LAKE SUPERIOR

STATION/POSITION TIME  TEMP    WIND        PRES    WAVE
                       AIR SEA DIR/SP/G            HT/PER
                 (UTC) (F)     (DEG/KT/KT) (MB)    (FT/S)
W MID LAKE BUOY  1750   39 36   60/  6/  6 1021.4F   0
DEVILS ISLAND    1800   43      70/  7/  8 1020.5F
PORT WING        1800   41      20/ 13/ 14 1019.0F
SAXON HARBOR     1840           20/ 10/ 12 1018.3F
$$

LMZ867-665-643>646-062000-
LAKE MICHIGAN

STATION/POSITION TIME  TEMP    WIND        PRES    WAVE
                       AIR SEA DIR/SP/G            HT/PER
                 (UTC) (F)     (DEG/KT/KT) (MB)    (FT/S)
CHAMBERS ISLAND  1800   50      20/  5/  7 1022.7F
NORTHPORT PIER   1800   45     130/  4/  8 1023.4F
SISTER BAY       1747   60     170/  9/ 11   N/A
KEWAUNEE LAKESHO 1812   46     170/  2/  5 1022.0F
SHEBOYGAN LAKESH 1800   47     190/  5/  6 1023.7S
PORT WASHINGTON  1840   47      80/  3/  4 1023.0F
ATWATER BUOY     1800   44     340/  6/  6 1023.7F
MILWAUKEE LAKESH 1800   46      50/  1/  2   N/A
KENOSHA   LAKESH 1800   45      30/  7/  8 1022.0F
$$

TC  - TEMPERATURE IN CELSIUS
VSB - VISIBILITY IN STATUTE MILES
WCI - WIND CHILL INDEX
HX  - HEAT INDEX




USA.gov is the U.S. government's official web portal to all federal, state and local government web resources and services.